Kahului, HI

3:57 PM HST on February 06, 2016 (GMT -1000)
Kahului

Weather History for PHOG - February, 2013

Change the Weather History Date:

Monday, February 18, 2013

  Actual Average Record
Temperature  
Mean Temperature 71 °F 72 °F  
Max Temperature 77 °F 81 °F 87 °F (1981)
Min Temperature 65 °F 63 °F 55 °F (1954)
Degree Days  
Heating Degree Days 0 0  
Month to date heating degree days 0 0  
Since 1 July heating degree days 0 0  
Cooling Degree Days 6 7  
Month to date cooling degree days 121 126  
Year to date cooling degree days 352 343  
Growing Degree Days 22 (Base 50)    
Moisture  
Dew Point 61 °F    
Average Humidity 75    
Maximum Humidity 93    
Minimum Humidity 56    
Precipitation  
Precipitation 0.24 in 0.06 in 1.08 in (1957)
Month to date precipitation 1.29 1.24  
Year to date precipitation 3.28 4.11  
Snow  
Snow 0.00 in - - ()
Month to date snowfall 0.0  
Since 1 July snowfall 0.0  
Snow Depth 0.00 in    
Sea Level Pressure  
Sea Level Pressure 30.14 in    
Wind  
Wind Speed 16 mph (ENE)    
Max Wind Speed 30 mph    
Max Gust Speed 43 mph    
Visibility 10 miles    
Events Rain    
T = Trace of Precipitation, MM = Missing Value Source: NWS Daily Summary

Daily Weather History Graph

Daily Weather History Graph

Search for Another Location

Airport or City:

Trip Planner

Search our weather history database for the weather conditions in past years. The results will help you decide how hot, cold, wet, or windy it might be!

Date:

Astronomy

Feb. 18, 2013 Rise Set
Actual Time 6:53 AM HST 6:25 PM HST
Civil Twilight 6:31 AM HST 6:48 PM HST
Nautical Twilight 6:05 AM HST 7:14 PM HST
Astronomical Twilight 5:39 AM HST 7:40 PM HST
Moon 12:41 PM HST (2/18) 1:23 AM HST (2/18)
Length of Visible Light 12h 17m
Length of Day
11h 32m
First Quarter, 60% of the Moon is Illuminated
Feb 18
First Quarter
Feb 25
Full
Mar 4
Last Quarter
Mar 11
New
Mar 19
First Quarter

Hourly Weather History & Observations

Time (HST) Temp. Dew Point Humidity Pressure Visibility Wind Dir Wind Speed Gust Speed Precip Events Conditions
12:54 AM 68.0 °F 63.0 °F 84% 30.16 in 10.0 mi East 13.8 mph 27.6 mph 0.01 in Rain Light Rain
1:54 AM 68.0 °F 62.1 °F 81% 30.14 in 10.0 mi ENE 13.8 mph - 0.00 in   Scattered Clouds
2:54 AM - - N/A% 30.14 in 10.0 mi NE 12.7 mph - 0.00 in Rain Light Rain
3:54 AM - - N/A% 30.13 in 9.0 mi ENE 13.8 mph 23.0 mph 0.06 in Rain Light Rain
4:54 AM - - N/A% 30.13 in 7.0 mi ENE 15.0 mph 20.7 mph 0.07 in Rain Rain
5:54 AM 66.2 °F 64.4 °F 94% 30.14 in 8.0 mi ENE 12.7 mph 21.9 mph 0.04 in Rain Light Rain
6:54 AM 66.2 °F 64.4 °F 94% 30.14 in 10.0 mi ENE 16.1 mph 24.2 mph 0.04 in   Mostly Cloudy
7:54 AM 69.8 °F 62.6 °F 78% 30.17 in 10.0 mi ENE 17.3 mph 29.9 mph 0.00 in   Mostly Cloudy
8:54 AM 70.0 °F 62.1 °F 76% 30.18 in 10.0 mi ENE 17.3 mph 29.9 mph 0.01 in Rain Light Rain
9:54 AM 72.0 °F 62.1 °F 71% 30.18 in 10.0 mi ENE 20.7 mph 28.8 mph 0.01 in Rain Light Rain
10:54 AM 73.9 °F 62.1 °F 66% 30.17 in 10.0 mi ENE 21.9 mph 38.0 mph 0.00 in Rain Light Rain
11:54 AM 73.0 °F 62.1 °F 68% 30.14 in 10.0 mi ENE 27.6 mph 42.6 mph 0.00 in Rain Light Rain
12:54 PM 75.9 °F 60.1 °F 58% 30.13 in 10.0 mi ENE 20.7 mph 32.2 mph 0.00 in   Scattered Clouds
1:54 PM 77.0 °F 60.1 °F 56% 30.11 in 10.0 mi ENE 25.3 mph 34.5 mph N/A   Scattered Clouds
2:54 PM 73.9 °F 59.0 °F 59% 30.11 in 10.0 mi ENE 19.6 mph 23.0 mph N/A   Mostly Cloudy
3:54 PM 75.9 °F 60.1 °F 58% 30.09 in 10.0 mi ENE 17.3 mph 28.8 mph N/A   Scattered Clouds
4:54 PM 73.9 °F 61.0 °F 64% 30.10 in 10.0 mi ENE 20.7 mph 28.8 mph 0.00 in   Scattered Clouds
5:54 PM 72.0 °F 60.1 °F 66% 30.12 in 10.0 mi ENE 18.4 mph 24.2 mph N/A   Scattered Clouds
6:54 PM 72.0 °F 60.1 °F 66% 30.13 in 10.0 mi ENE 15.0 mph 21.9 mph N/A   Scattered Clouds
7:54 PM 70.0 °F 60.1 °F 71% 30.14 in 10.0 mi ENE 13.8 mph 24.2 mph N/A   Scattered Clouds
8:54 PM 69.1 °F 61.0 °F 75% 30.16 in 10.0 mi ENE 5.8 mph - N/A   Partly Cloudy
9:54 PM 69.1 °F 59.0 °F 70% 30.17 in 10.0 mi NE 10.4 mph 18.4 mph N/A   Scattered Clouds
10:54 PM 69.1 °F 60.1 °F 73% 30.17 in 10.0 mi NE 8.1 mph - 0.00 in   Scattered Clouds
11:54 PM 69.1 °F 57.9 °F 68% 30.16 in 10.0 mi NE 10.4 mph - N/A   Clear